Cloud_Cover
0 10 17 56 100 100 68 100 100 100 100 100 100 72 85 14 32 18 79 100 100 89 37 25 40 36 60 57 46 20 96 81 22 32 44 76 50 56 86 85 84 58 100
0 12 22 80 92 37 71 100 100 100 100 100 97 96 81 99 91 84 100 99 100 38 91 22 99 89 70 42 51 34 58 84 5 46 85 88 100 100 30 69 59 79 100
0 16 10 72 100 69 83 100 100 100 98 76 94 97 100 100 100 100 100 100 100 46 97 22 9 99 8 69 16 16 18 15 26 83 56 100 60 62 69 65 65 89 90
0 0 0 33 100 70 82 90 100 99 34 14 25 78 11 58 100 100 100 100 100 100 100 14 79 40 21 54 15 5 5 5 70 100 91 13 16 94 34 97 87 94 100
0 0 0 8 90 98 99 76 55 26 62 35 18 23 16 40 100 96 100 100 100 67 48 7 39 38 23 38 24 17 5 5 60 6 31 98 100 93 56 100 92 100 36
0 0 0 0 16 35 49 59 65 26 35 75 44 30 28 76 60 95 66 100 96 76 33 40 40 38 21 42 47 55 98 10 5 25 9 97 100 93 78 88 98 54 62
0 0 0 0 0 9 28 88 38 42 43 52 47 23 29 18 89 89 75 100 100 88 37 94 67 35 78 23 29 92 78 82 25 14 7 80 54 100 82 62 92 94 53
0 0 0 0 0 0 9 19 16 21 7 6 8 40 31 5 5 25 86 100 100 100 100 88 69 95 77 100 99 77 55 55 84 42 22 22 71 4 18 92 79 32 100
0 0 0 0 0 0 0 2 6 8 13 20 34 22 13 13 20 78 5 100 100 100 58 84 46 87 95 86 89 25 35 58 58 100 55 34 78 55 16 8 30 36 10
0 0 0 0 0 0 0 0 0 2 21 30 19 5 2 28 91 89 100 100 100 97 100 98 46 72 92 94 96 96 82 99 56 98 100 83 60 45 37 54 14 67 98
1 5 0 0 0 0 0 0 0 0 2 1 5 5 30 87 100 100 99 96 88 100 100 100 99 100 100 100 97 100 100 100 91 100 100 98 44 71 70 42 44 21 15
4 95 94 5 0 0 0 0 0 0 0 2 5 5 100 100 100 100 100 100 98 98 100 100 100 100 100 100 100 100 100 100 100 100 100 97 99 100 99 100 97 100 99
76 33 5 5 13 8 2 0 0 0 0 0 12 43 100 24 71 100 99 95 99 99 45 42 42 73 90 100 100 100 100 100 100 100 100 100 100 100 100 100 100 100 100
100 82 96 100 100 100 25 5 2 1 6 21 16 28 100 98 70 95 96 83 100 100 100 100 86 6 11 7 4 24 86 99 100 99 100 100 98 100 100 100 100 100 100
88 100 100 98 100 96 54 3 2 1 3 17 31 87 48 20 100 100 100 96 43 33 97 65 24 14 5 2 14 6 5 8 5 28 95 69 23 21 100 74 39 66 59
98 100 100 89 5 59 12 5 29 39 54 82 100 100 100 45 6 25 39 81 100 100 100 99 100 100 94 9 5 2 15 100 63 4 5 5 5 5 5 6 5 34 6
100 100 100 100 72 35 6 17 81 100 100 100 100 100 100 100 100 96 52 100 62 57 40 66 49 94 71 16 5 5 5 14 38 38 35 64 26 86 86 59 82 93 46
100 76 94 100 100 100 99 100 93 99 100 100 100 100 100 87 99 97 98 100 34 21 40 19 16 43 69 13 5 5 18 16 84 47 79 90 97 68 23 39 68 98 100
100 61 100 84 100 100 100 98 92 100 100 100 100 100 100 100 100 38 40 100 12 40 38 11 62 67 95 37 55 15 8 9 18 23 78 58 78 67 17 38 13 49 62
96 100 100 100 87 56 96 100 100 100 100 100 100 100 100 100 100 100 100 100 29 12 79 98 100 89 43 27 46 23 62 100 38 67 65 78 5 5 71 96 79 18 11
5 82 100 100 100 100 100 100 100 100 100 100 100 100 100 100 100 100 100 100 81 56 79 94 94 45 100 100 32 83 24 69 32 73 66 17 5 5 54 63 46 59 33
40 5 87 17 98 100 100 100 100 100 100 100 100 100 100 100 100 100 100 100 100 100 100 100 100 100 100 94 7 86 96 100 79 73 47 52 53 6 5 21 26 22 34
4 5 11 87 100 100 100 58 90 100 100 100 100 100 100 100 100 100 100 100 100 100 100 100 100 94 11 4 28 61 57 5 11 2 31 6 5 2 28 5 5 6 28
6 100 100 100 100 100 100 100 46 100 100 100 100 100 100 100 100 100 100 100 100 100 100 74 55 77 94 68 98 9 6 13 69 99 100 100 100 100 24 22 26 84 5
100 86 92 100 100 100 100 100 100 100 100 96 100 100 100 100 100 100 100 100 100 97 100 54 95 99 100 98 85 100 100 100 100 99 60 5 20 5 90 76 56 3 5
24 94 100 89 100 100 100 100 100 96 99 100 98 98 100 100 100 100 100 100 100 100 100 100 100 100 100 100 100 100 100 84 63 50 78 98 100 57 8 8 0 0 1